Location: Berlise
(49.6641°N, 4.1077°E)
Time: 01:53:10
(UTC+00:00)

Daily predictions for brighter satellites

Satellite Brightness Start Highest point End
(mag) Time Altitude Azimuth Time Altitude Azimuth Time Altitude Azimuth
Cosmos 2219 Rocket 3.9 03:41:53 26° NNE 03:41:53 26° NNE 03:44:12 10° NNE
Cosmos 2237 Rocket 3.4 03:43:06 38° E 03:43:06 38° E 03:48:03 10° NE
BREEZE-M DEB (TANK) 4.1 03:55:50 75° SW 03:56:07 76° SSW 04:00:53 10° ESE
Cosmos 2333 Rocket 3.6 04:04:35 29° N 04:04:35 29° N 04:07:24 10° NNE
Lacrosse 4 Rocket 3.5 04:04:26 24° ESE 04:04:26 24° ESE 04:07:51 10° NE
FENGYUN 3A 4.2 04:00:17 10° NNE 04:04:53 56° ENE 04:04:53 56° ENE
Cosmos 2360 Rocket 4.1 04:15:25 18° N 04:15:25 18° N 04:17:18 10° NNE
Cosmos 1464 Rocket 4.1 04:13:47 42° SSE 04:15:58 73° E 04:22:09 10° NNE
Cosmos 841 Rocket 3.9 04:16:53 60° ENE 04:16:53 60° ENE 04:21:30 10° NNE
SL-16 R/B 4.4 04:18:48 13° N 04:18:48 13° N 04:19:59 10° N
Cosmos 1980 3.8 04:17:06 71° ESE 04:17:06 71° ESE 04:22:43 10° NNE
Cosmos 2322 Rocket 4.3 04:20:13 14° N 04:20:13 14° N 04:21:31 10° N
Meteor 1-21 Rocket 4.4 04:17:53 52° N 04:19:19 75° ENE 04:25:09 10° SSE
COSMOS 2428 3.6 04:25:09 37° N 04:25:09 37° N 04:28:50 10° NNE
Cosmos 1072 Rocket 4.4 04:22:08 55° S 04:23:40 88° E 04:30:04 10° N
SKYMED 2 4.5 04:20:08 10° SE 04:23:56 48° E 04:23:56 48° E
ATLAS CENTAUR R/B 2.8 04:31:44 31° E 04:31:44 31° E 04:34:20 10° NE
METEOR-M 4.1 04:27:28 10° NNE 04:32:51 79° ESE 04:34:34 45° S
Cosmos 2150 Rocket 4.4 04:33:50 36° N 04:35:58 63° ENE 04:41:20 10° SE
Cosmos 2084 Rocket 4.2 04:37:18 50° SE 04:37:18 50° SE 04:40:41 10° SE
Cosmos 1092 Rocket 4.5 04:31:12 10° N 04:37:17 58° ENE 04:43:22 10° SSE
Cosmos 372 Rocket 4.4 04:40:32 50° S 04:40:32 50° S 04:44:27 10° SSE
ALOS 3.6 04:35:34 10° N 04:37:53 29° N 04:37:53 29° N
Cosmos 1602 Rocket 3.9 04:40:24 43° NNE 04:41:42 64° ENE 04:46:09 10° SSE
USA 215 3.4 04:35:36 10° ENE 04:41:58 56° NNW 04:43:15 49° NW
ADEOS 3.6 04:38:00 10° NNE 04:43:15 79° ESE 04:47:41 15° SSW
GEOS 3 Rocket 4.3 04:39:21 10° ESE 04:44:35 54° NE 04:46:53 32° NNW
USA 307 3.7 04:44:43 43° SSE 04:44:56 43° SE 04:48:58 10° ENE
NOSS 0 Rocket 3.8 04:45:40 61° W 04:46:28 67° WNW 04:52:38 10° NNE
Cosmos 1328 4.2 04:46:59 59° E 04:46:59 59° E 04:50:48 10° SSE
CZ-2C R/B 4.3 04:43:06 10° N 04:44:42 19° N 04:44:42 19° N
Nadezhda 4 Rocket 3.8 04:41:43 10° NNW 04:47:51 79° W 04:53:57 10° S
USA 305 3.5 04:50:49 48° SSE 04:51:12 49° SE 04:55:17 10° ENE
USA 308 3.5 04:53:17 46° S 04:53:53 50° SE 04:58:02 10° ENE
Cosmos 1400 Rocket 3.0 04:53:20 37° S 04:54:52 72° E 04:59:01 10° NNE
Cosmos 1943 Rocket 2.7 04:51:10 21° NNW 04:54:59 59° ENE 05:00:35 10° SE
SL-4 R/B 2.3 04:55:30 54° SE 04:55:30 54° SE 04:59:19 10° ENE
Cosmos 2034 Rocket 3.9 04:51:12 10° SSW 04:57:34 81° W 05:03:57 10° N
Meteor 1-16 Rocket 4.3 04:52:34 10° S 04:58:31 90° NE 05:04:28 10° NNE
Cosmos 1570 Rocket 3.8 04:57:36 52° SW 04:58:51 74° WNW 05:04:08 10° NNE
SJ-12 3.9 04:57:21 10° NNE 05:01:32 85° ESE 05:04:12 22° SSW
Cosmos 540 Rocket 3.5 05:01:40 55° WNW 05:01:40 55° WNW 05:06:43 10° NNE
CZ-2C R/B 4.2 04:57:50 10° SE 05:02:32 33° ENE 05:07:20 10° N
Cosmos 2298 Rocket 3.9 05:00:28 36° NNW 05:02:44 79° WSW 05:08:03 10° SSE
USA 306 3.3 05:02:36 48° SSW 05:03:25 58° SSE 05:07:35 10° ENE
Cosmos 2369 Rocket 3.2 05:00:31 13° NNW 05:05:19 44° NE 05:10:39 10° SE
NOSS 3-2 (A) 3.8 05:00:28 14° SSW 05:05:21 63° SE 05:11:49 10° NE
Cosmos 1125 Rocket 3.6 05:01:52 21° NNW 05:05:30 79° ENE 05:10:50 10° SSE
Cosmos 1814 Rocket 3.8 05:03:50 42° SW 05:05:31 72° WNW 05:10:41 10° NNE
Envisat 4.4 05:00:50 10° NNE 05:05:37 39° E 05:10:22 10° SSE
Cosmos 1634 Rocket 4.5 05:01:52 10° S 05:07:54 61° E 05:14:00 10° NNE
CZ-4B R/B 2.9 05:06:59 10° NNE 05:10:37 68° ESE 05:14:22 10° S
Cosmos 1461 4.3 05:11:24 30° NNW 05:11:24 30° NNW 05:15:10 10° NNE
COSMO-SKYMED 1 2.5 05:08:06 10° S 05:12:22 57° W 05:12:34 57° W
CZ-4B R/B 4.0 05:08:01 10° N 05:12:27 61° WNW 05:13:34 45° SW
PSLV R/B 3.9 05:10:18 10° SSE 05:14:26 85° ENE 05:17:58 14° NNW
Cosmos 2278 Rocket 4.2 05:18:36 12° SW 05:18:36 12° SW 05:19:13 10° SSW
Cosmos 2228 4.1 05:14:00 10° SSE 05:18:02 46° E 05:22:07 10° NNE
SL-16 R/B 2.4 05:12:59 10° SSW 05:18:37 74° ESE 05:24:18 10° NNE
NOSS 3-2 (C) 4.3 05:13:39 10° SSW 05:19:04 49° ESE 05:25:17 10° NE
Cosmos 972 Rocket 4.3 05:16:54 10° SSW 05:23:08 86° ESE 05:28:42 10° NNE
Cosmos 2219 Rocket 3.5 05:23:36 21° NW 05:23:36 21° NW 05:27:36 10° N
Cosmos 2026 Rocket 4.0 05:17:10 10° N 05:23:36 87° W 05:29:59 10° S
ATLAS 5 CENTAUR R/B 3.9 05:25:46 13° SSW 05:25:46 13° SSW 05:27:06 10° S
ERS-2 2.1 05:21:28 10° S 05:25:03 55° WSW 05:25:10 54° W
CENTAUR R/B 3.1 05:20:28 10° SSW 05:26:16 59° ESE 05:33:13 10° NE
Cosmos 2237 Rocket 2.5 05:24:59 33° W 05:26:51 43° NW 05:32:18 10° NNE
Cosmos 2208 Rocket 4.1 05:23:25 22° SW 05:26:53 55° WNW 05:32:12 10° NNE
H-2A R/B 2.6 05:23:52 10° NNE 05:27:37 83° ESE 05:31:22 10° SSW
Cosmos 1953 4.3 05:32:23 15° NNW 05:32:23 15° NNW 05:33:17 10° N
Meteor PRIRODA 3.4 05:28:39 10° N 05:32:18 72° WNW 05:35:54 10° SSW
Cosmos 1606 Rocket 4.0 05:30:13 10° S 05:34:27 61° E 05:38:45 10° NNE
FALCON 9 DEB 4.2 05:38:25 17° SSW 05:40:24 36° SE 05:43:17 10° ENE
Lacrosse 4 Rocket 1.7 05:40:48 27° WSW 05:42:45 48° NW 05:47:02 10° NNE
Meteor 1-11 4.2 05:38:56 10° NNW 05:44:24 57° W 05:49:51 10° S
Cosmos 1300 2.5 05:42:33 10° SSW 05:46:21 77° W 05:50:12 10° N
Cosmos 2333 Rocket 3.8 05:46:36 16° NW 05:47:24 16° NNW 05:50:53 10° N
SAR-Lupe-4 4.0 05:45:20 10° S 05:48:42 38° W 05:50:19 24° NW
deb Chang Zheng 4 3.8 05:45:56 10° N 05:49:59 44° WNW 05:53:59 10° SW
Cosmos 1315 Rocket 2.6 05:47:01 10° SSW 05:50:55 82° WNW 05:54:52 10° N
Cosmos 1655 Rocket 4.5 05:46:06 10° N 05:52:21 65° ENE 05:58:36 10° SSE
Meteor 1-31 Rocket 4.1 05:50:11 10° NNW 05:52:40 22° NW 05:52:40 22° NW
Cosmos 2297 4.2 05:50:12 17° NW 05:54:05 38° WSW 05:59:21 10° S
Cosmos 1346 Rocket 3.3 05:54:23 14° NNW 05:57:29 37° W 06:01:10 10° SSW
MOS 1 Rocket 4.0 05:53:54 10° SSW 05:58:09 31° W 06:02:12 10° NNW
USA 238 DEB 3.6 05:54:27 10° SW 06:01:04 78° NW 06:08:05 10° NE
USA 238 3.6 05:54:34 10° SW 06:01:11 78° NW 06:08:11 10° NE
Cosmos 836 Rocket 4.4 05:56:01 10° SSW 06:01:16 78° WNW 06:06:32 10° NNE
Cosmos 1758 Rocket 4.1 05:58:12 10° NNW 06:02:20 37° W 06:06:25 10° SSW
FALCON 9 DEB 3.6 06:01:26 24° WNW 06:03:10 46° N 06:06:29 10° ENE
Cosmos 1689 Rocket 3.4 06:05:10 10° SSW 06:07:23 21° W 06:07:23 21° W
COSMOS 2428 4.4 06:07:11 14° NW 06:08:57 15° NNW 06:12:14 10° N
Cosmos 1441 Rocket 3.8 06:05:09 10° N 06:09:05 62° ENE 06:12:56 10° SSE
ATLAS CENTAUR R/B 1.9 06:07:57 19° W 06:09:51 30° NW 06:13:10 10° NNE
SL-19 R/B 4.1 06:10:13 10° NNE 06:14:01 82° ESE 06:17:18 10° SSW
BREEZE M DEB (TANK) 3.1 06:12:09 10° SW 06:14:28 45° SSE 06:19:30 10° ENE
ALOS 4.2 06:15:12 10° NNW 06:16:23 12° NW 06:16:23 12° NW
MOS 1-B 4.4 06:11:06 10° NNE 06:16:56 88° ESE 06:22:43 10° SSW
YAOGAN 6 3.1 06:14:22 10° N 06:17:51 39° WNW 06:21:18 10° SW
Cosmos 1892 2.6 06:14:09 10° NNW 06:18:00 72° W 06:21:50 10° S
Cosmos 1184 Rocket 3.8 06:15:19 10° N 06:18:30 48° ENE 06:21:40 10° SSE
Spot 2 3.8 06:14:36 10° NNE 06:18:39 78° WNW 06:22:45 10° SSW
Cosmos 1726 Rocket 3.5 06:14:29 10° SSW 06:18:44 61° WNW 06:23:02 10° N
Cosmos 2058 Rocket 3.1 06:16:19 10° S 06:20:43 89° ESE 06:25:12 10° N
Cosmos 1603 4.2 06:16:16 10° SSW 06:21:49 65° ESE 06:27:25 10° NNE
FALCON 9 DEB 2.9 06:19:28 10° WSW 06:22:34 77° SSE 06:25:40 10° ENE
GEOS 3 Rocket 4.3 06:17:40 10° SSE 06:22:42 41° WSW 06:27:48 10° NW
USA 215 3.8 06:18:14 10° ENE 06:24:25 48° N 06:30:36 10° WNW
USA 307 3.0 06:20:53 11° W 06:24:53 62° NNW 06:29:05 10° ENE
CZ-4B DEB 4.2 06:22:25 10° N 06:27:57 66° WNW 06:33:27 10° SSW
In-Cosmos 22 Rocket 4.2 06:23:00 10° NNW 06:28:21 56° W 06:33:33 10° S
PSLV R/B 4.3 06:24:53 10° N 06:28:39 41° WNW 06:32:28 10° SW
Cosmos 2292 Rocket 3.3 06:27:20 10° NNW 06:30:10 36° W 06:33:19 10° SSW
Cosmos 2279 Rocket 4.1 06:24:46 10° SSW 06:30:54 57° WNW 06:37:05 10° N
USA 305 3.0 06:26:59 10° W 06:31:11 58° NNW 06:35:22 10° ENE
FALCON 9 DEB 3.0 06:28:12 10° WSW 06:31:20 80° SSE 06:34:28 10° ENE
Cosmos 1408 2.5 06:28:09 10° NNW 06:31:44 68° W 06:35:19 10° S
Cosmos 2098 Rocket 4.4 06:29:05 10° NNW 06:33:49 27° W 06:37:45 10° SW
USA 308 3.1 06:29:40 10° W 06:33:55 58° NNW 06:38:09 10° ENE
Okean O Rocket 1.6 06:29:36 10° NNE 06:34:01 88° ESE 06:38:21 10° SSW
SL-4 R/B 2.0 06:31:07 10° W 06:34:59 68° N 06:39:11 10° ENE
SMAP 3.0 06:31:26 10° N 06:36:04 67° WNW 06:40:40 10° SSW
Cosmos 2263 4.3 06:32:17 10° NW 06:37:51 59° WSW 06:43:26 10° S
Cosmos 1943 Rocket 3.2 06:33:41 10° NW 06:38:23 27° WSW 06:43:04 10° SSW
H-2A R/B 2.7 06:35:49 10° N 06:40:16 59° WNW 06:44:41 10° SSW
Iridium 4 Rocket 4.1 06:35:39 10° S 06:41:29 79° E 06:47:24 10° N
CZ-2C R/B 3.0 06:37:43 10° SSW 06:42:42 43° W 06:47:51 10° NNW
Cosmos 1939 Rocket 3.0 06:39:03 10° NNE 06:42:59 79° ESE 06:46:50 10° S
USA 306 3.1 06:39:19 10° W 06:43:30 54° NNW 06:47:40 10° ENE
Envisat 3.6 06:40:02 10° N 06:44:34 33° WNW 06:49:05 10° SW
CZ-4B R/B 4.5 06:43:38 10° NNW 06:45:16 13° WNW 06:46:57 10° W
Cosmos 2369 Rocket 2.8 06:44:10 10° NW 06:49:16 36° WSW 06:54:19 10° S
Cosmos 1076 Rocket 3.6 06:45:30 10° N 06:49:47 84° E 06:54:02 10° S
Cosmos 773 Rocket 4.0 06:44:34 10° SSW 06:49:49 85° WNW 06:55:04 10° NNE
